Hagerstown, MD

3:08 AM EST on November 21, 2019 (GMT -0500)
Hagerstown Regional-Henson

Weather History for KHGR - September, 2019

Change the Weather History Date:

Wednesday, September 11, 2019

  Actual Average Record
Temperature  
Mean Temperature 80 °F 68 °F  
Max Temperature 93 °F 77 °F 93 °F (2019)
Min Temperature 67 °F 58 °F 47 °F (2012)
Degree Days  
Heating Degree Days 0 1  
Month to date heating degree days 0 6  
Since 1 July heating degree days 0 11  
Cooling Degree Days 15 4  
Month to date cooling degree days 99 54  
Year to date cooling degree days 1308 922  
Growing Degree Days 28 (Base 50)    
Moisture  
Dew Point 66 °F    
Average Humidity 69    
Maximum Humidity 93    
Minimum Humidity 44    
Precipitation  
Precipitation 0.00 in 0.10 in 0.69 in (2006)
Month to date precipitation 0.05 1.09  
Year to date precipitation 28.42 27.72  
Sea Level Pressure  
Sea Level Pressure 30.16 in    
Wind  
Wind Speed 6 mph (South)    
Max Wind Speed 15 mph    
Max Gust Speed 21 mph    
Visibility 10 miles    
Events Thunderstorm    
T = Trace of Precipitation, MM = Missing Value Source: NWS Daily Summary

Daily Weather History Graph

Daily Weather History Graph

Search for Another Location

Airport or City:

Astronomy

Sep. 11, 2019 Rise Set
Actual Time 6:48 AM EDT 7:26 PM EDT
Civil Twilight 6:20 AM EDT 7:53 PM EDT
Nautical Twilight 5:48 AM EDT 8:25 PM EDT
Astronomical Twilight 5:15 AM EDT 8:58 PM EDT
Moon 6:37 PM EDT (9/11) 4:09 AM EDT (9/11)
Length of Visible Light 13h 32m
Length of Day
12h 38m
Waxing Gibbous, 94% of the Moon is Illuminated
Sep 11
Waxing Gibbous
Sep 14
Full
Sep 21
Last Quarter
Sep 28
New
Oct 5
First Quarter

Hourly Weather History & Observations

Time (EDT) Temp. Heat Index Dew Point Humidity Pressure Visibility Wind Dir Wind Speed Gust Speed Precip Events Conditions
12:53 AM 73.0 °F - 64.9 °F 76% 30.25 in 10.0 mi South 10.4 mph - N/A   Clear
1:53 AM 72.0 °F - 64.9 °F 78% 30.25 in 10.0 mi SSE 10.4 mph - N/A   Clear
2:53 AM 71.1 °F - 64.9 °F 81% 30.23 in 10.0 mi South 9.2 mph - N/A   Clear
3:53 AM 70.0 °F - 64.9 °F 84% 30.22 in 10.0 mi South 8.1 mph - N/A   Clear
4:53 AM 70.0 °F - 64.9 °F 84% 30.22 in 10.0 mi South 6.9 mph - N/A   Clear
5:53 AM 69.1 °F - 64.0 °F 84% 30.22 in 10.0 mi SSW 3.5 mph - N/A   Clear
6:53 AM 66.9 °F - 64.0 °F 90% 30.24 in 8.0 mi Calm Calm - N/A   Clear
7:53 AM 69.1 °F - 64.9 °F 87% 30.25 in 8.0 mi Calm Calm - N/A   Clear
8:53 AM 73.0 °F - 64.9 °F 76% 30.25 in 10.0 mi SW 3.5 mph - N/A   Clear
9:53 AM 77.0 °F - 66.0 °F 69% 30.25 in 10.0 mi Variable 4.6 mph - N/A   Clear
10:53 AM 81.0 °F 83.3 °F 66.9 °F 62% 30.22 in 10.0 mi SW 6.9 mph - N/A   Clear
11:53 AM 84.9 °F 87.1 °F 66.0 °F 53% 30.20 in 10.0 mi SSW 8.1 mph - N/A   Clear
12:53 PM 89.1 °F 92.1 °F 66.9 °F 48% 30.17 in 10.0 mi Variable 4.6 mph - N/A   Clear
1:53 PM 91.0 °F 93.8 °F 66.0 °F 44% 30.15 in 10.0 mi Variable 4.6 mph - N/A   Clear
2:53 PM 91.9 °F 94.1 °F 64.9 °F 41% 30.11 in 10.0 mi Calm Calm - N/A Thunderstorm Thunderstorm
2:54 PM 91.4 °F 93.2 °F 64.4 °F 41% 30.10 in 10.0 mi Calm Calm - N/A Thunderstorm Thunderstorm
3:13 PM 89.6 °F 91.1 °F 64.4 °F 43% 30.10 in 10.0 mi SSW 8.1 mph - N/A Thunderstorm Scattered Clouds
3:34 PM 89.6 °F 92.2 °F 66.2 °F 46% 30.08 in 10.0 mi SSW 8.1 mph - N/A   Partly Cloudy
3:53 PM 91.9 °F 95.9 °F 68.0 °F 45% 30.08 in 10.0 mi SSW 9.2 mph - N/A   Mostly Cloudy
4:53 PM 90.0 °F 93.6 °F 68.0 °F 48% 30.08 in 10.0 mi South 9.2 mph - N/A   Mostly Cloudy
5:53 PM 86.0 °F 89.4 °F 68.0 °F 55% 30.08 in 10.0 mi South 8.1 mph - N/A   Clear
5:55 PM 86.0 °F 89.4 °F 68.0 °F 55% 30.07 in 10.0 mi South 4.6 mph - N/A   Clear
6:53 PM 84.0 °F 87.8 °F 69.1 °F 61% 30.09 in 10.0 mi South 10.4 mph - N/A   Partly Cloudy
7:53 PM 81.0 °F 83.8 °F 68.0 °F 65% 30.11 in 10.0 mi SSE 5.8 mph - N/A   Scattered Clouds
8:53 PM 78.1 °F - 69.1 °F 74% 30.10 in 10.0 mi South 5.8 mph - N/A   Clear
9:53 PM 77.0 °F - 69.1 °F 76% 30.12 in 10.0 mi South 5.8 mph - N/A   Clear
10:53 PM 75.9 °F - 69.1 °F 79% 30.10 in 10.0 mi SSE 6.9 mph - N/A   Mostly Cloudy
11:53 PM 75.0 °F - 68.0 °F 79% 30.10 in 10.0 mi ESE 6.9 mph - N/A   Clear